Location: Kuppenheim
(48.8299°N, 8.2568°E)
Time: 08:28:12
(UTC+00:00)

Envisat - Pass Details

Date: 02 December 2022
Orbit: 763 x 765 km, 98.2° (Epoch: 04 February)

Event Time Altitude Azimuth Distance (km) Brightness Sun altitude
Rises 04:56:03 0° 5° (N) 3,246 6.2 -19.6°
Reaches altitude 10° 04:58:37 10° 355° (N) 2,315 5.3 -19.2°
Enters shadow 05:01:24 24° 326° (NNW) 1,551 4.2 -18.7°
